Location: Altleiningen
(49.5078°N, 8.0741°E)
Time: 03:12:52
(UTC+00:00)

Cosmos 2154 Rocket - Pass Details

Date: 03 March 2021
Orbit: 966 x 996 km, 82.9° (Epoch: 16 April)

Event Time Altitude Azimuth Distance (km) Brightness Sun altitude
Rises 17:34:44 0° 163° (SSE) 3,657 6.9 -4.2°
Reaches altitude 10° 17:37:22 10° 157° (SSE) 2,710 6.2 -4.6°
Maximum altitude 17:43:06 41° 89° (E) 1,367 4.4 -5.5°
Drops below altitude 10° 17:48:52 10° 21° (NNE) 2,719 6.1 -6.5°
Sets 17:51:30 0° 15° (NNE) 3,670 6.8 -6.9°
